Year,Month,Day,Hour,Minute,Value (Times are PST for temperature in C)
2009,03,08,10,03,2.30
2009,03,08,10,04,2.30
2009,03,08,10,05,2.30
2009,03,08,10,06,2.40
2009,03,08,10,07,2.40
2009,03,08,10,08,2.40
2009,03,08,10,09,2.40
2009,03,08,10,10,2.50
2009,03,08,10,11,2.50
2009,03,08,10,12,2.50
2009,03,08,10,13,2.60
2009,03,08,10,14,2.70
2009,03,08,10,15,2.70
2009,03,08,10,16,2.80
2009,03,08,10,17,2.80
2009,03,08,10,18,2.80
2009,03,08,10,19,2.90
2009,03,08,10,20,2.90
2009,03,08,10,21,2.90
2009,03,08,10,22,2.90
2009,03,08,10,23,2.90
2009,03,08,10,24,2.90
2009,03,08,10,25,2.90
2009,03,08,10,26,2.90
2009,03,08,10,27,2.90
2009,03,08,10,28,2.90
2009,03,08,10,29,2.90
2009,03,08,10,30,2.90
2009,03,08,10,31,2.90
2009,03,08,10,32,2.90
2009,03,08,10,33,2.90
2009,03,08,10,34,3.00
2009,03,08,10,35,3.00
2009,03,08,10,36,3.00
2009,03,08,10,37,3.00
2009,03,08,10,38,3.00
2009,03,08,10,39,3.10
2009,03,08,10,40,3.10
2009,03,08,10,41,3.10
2009,03,08,10,42,3.10
2009,03,08,10,43,3.10
2009,03,08,10,44,3.10
2009,03,08,10,45,3.20
2009,03,08,10,46,3.20
2009,03,08,10,47,3.20
2009,03,08,10,48,3.20
2009,03,08,10,49,3.20
2009,03,08,10,50,3.20
2009,03,08,10,51,3.30
2009,03,08,10,52,3.30
2009,03,08,10,53,3.30
2009,03,08,10,54,3.30
2009,03,08,10,55,3.30
2009,03,08,10,56,3.30
2009,03,08,10,57,3.30
2009,03,08,10,58,3.30
2009,03,08,10,59,3.40
2009,03,08,11,00,3.40
2009,03,08,11,01,3.40
2009,03,08,11,02,3.40
2009,03,08,11,03,3.40
2009,03,08,11,04,3.40
2009,03,08,11,05,3.30
2009,03,08,11,06,3.30
2009,03,08,11,07,3.40
2009,03,08,11,08,3.40
2009,03,08,11,09,3.40
2009,03,08,11,10,3.40
2009,03,08,11,11,3.40
2009,03,08,11,12,3.40
2009,03,08,11,13,3.40
2009,03,08,11,14,3.50
2009,03,08,11,15,3.50
2009,03,08,11,16,3.50
2009,03,08,11,17,3.60
2009,03,08,11,18,3.60
2009,03,08,11,19,3.60
2009,03,08,11,20,3.60
2009,03,08,11,21,3.60
2009,03,08,11,22,3.50
2009,03,08,11,23,3.60
2009,03,08,11,24,3.60
2009,03,08,11,25,3.60
2009,03,08,11,26,3.60
2009,03,08,11,27,3.60
2009,03,08,11,28,3.60
2009,03,08,11,29,3.60
2009,03,08,11,30,3.60
2009,03,08,11,31,3.60
2009,03,08,11,32,3.60
2009,03,08,11,33,3.50
2009,03,08,11,34,3.50
2009,03,08,11,35,3.50
2009,03,08,11,36,3.40
2009,03,08,11,37,3.40
2009,03,08,11,38,3.40
2009,03,08,11,39,3.40
2009,03,08,11,40,3.40
2009,03,08,11,41,3.40
2009,03,08,11,42,3.40
2009,03,08,11,43,3.40
2009,03,08,11,44,3.40
2009,03,08,11,45,3.40
2009,03,08,11,46,3.40
2009,03,08,11,47,3.50
2009,03,08,11,48,3.50
2009,03,08,11,49,3.50
2009,03,08,11,50,3.50
2009,03,08,11,51,3.50
2009,03,08,11,52,3.50
2009,03,08,11,53,3.50
2009,03,08,11,54,3.50
2009,03,08,11,55,3.50
2009,03,08,11,56,3.50
2009,03,08,11,57,3.50
2009,03,08,11,58,3.50
2009,03,08,11,59,3.50
2009,03,08,12,00,3.50
2009,03,08,12,01,3.40
2009,03,08,12,02,3.40
2009,03,08,12,03,3.40
2009,03,08,12,04,3.50
2009,03,08,12,05,3.50
2009,03,08,12,06,3.50
2009,03,08,12,07,3.60
2009,03,08,12,08,3.60
2009,03,08,12,09,3.60
2009,03,08,12,10,3.60
2009,03,08,12,11,3.60
2009,03,08,12,12,3.60
2009,03,08,12,13,3.60
2009,03,08,12,14,3.60
2009,03,08,12,15,3.60
2009,03,08,12,16,3.60
2009,03,08,12,17,3.60
2009,03,08,12,18,3.60
2009,03,08,12,19,3.60
2009,03,08,12,20,3.60
2009,03,08,12,21,3.60
2009,03,08,12,22,3.60
2009,03,08,12,23,3.60
2009,03,08,12,24,3.60
2009,03,08,12,25,3.60
2009,03,08,12,26,3.60
2009,03,08,12,27,3.60
2009,03,08,12,28,3.60
2009,03,08,12,29,3.50
2009,03,08,12,30,3.50
2009,03,08,12,31,3.50
2009,03,08,12,32,3.50
2009,03,08,12,33,3.50
2009,03,08,12,34,3.50
2009,03,08,12,35,3.50
2009,03,08,12,36,3.50
2009,03,08,12,37,3.50
2009,03,08,12,38,3.60
2009,03,08,12,39,3.60
2009,03,08,12,40,3.50
2009,03,08,12,41,3.50
2009,03,08,12,42,3.50
2009,03,08,12,43,3.50
2009,03,08,12,44,3.50
2009,03,08,12,45,3.60
2009,03,08,12,46,3.60
2009,03,08,12,47,3.60
2009,03,08,12,48,3.60
2009,03,08,12,49,3.60
2009,03,08,12,50,3.60
2009,03,08,12,51,3.60
2009,03,08,12,52,3.60
2009,03,08,12,53,3.60
2009,03,08,12,54,3.60
2009,03,08,12,55,3.60
2009,03,08,12,56,3.70
2009,03,08,12,57,3.70
2009,03,08,12,58,3.70
2009,03,08,12,59,3.70
2009,03,08,13,00,3.70
2009,03,08,13,01,3.70
2009,03,08,13,02,3.70
2009,03,08,13,03,3.80
2009,03,08,13,04,3.80
2009,03,08,13,05,3.80
2009,03,08,13,06,3.80
2009,03,08,13,07,3.80
2009,03,08,13,08,3.90
2009,03,08,13,09,3.90
2009,03,08,13,10,4.00
2009,03,08,13,11,4.10
2009,03,08,13,12,4.10
2009,03,08,13,13,4.20
2009,03,08,13,14,4.20
2009,03,08,13,15,4.20
2009,03,08,13,16,4.20
2009,03,08,13,17,4.10
2009,03,08,13,18,4.10
2009,03,08,13,19,4.10
2009,03,08,13,20,4.00
2009,03,08,13,21,4.00
2009,03,08,13,22,4.00
2009,03,08,13,23,3.90
2009,03,08,13,24,3.90
2009,03,08,13,25,4.00
2009,03,08,13,26,4.00
2009,03,08,13,27,4.10
2009,03,08,13,28,4.10
2009,03,08,13,29,4.20
2009,03,08,13,30,4.30
2009,03,08,13,31,4.30
2009,03,08,13,32,4.30
2009,03,08,13,33,4.30
2009,03,08,13,34,4.30
2009,03,08,13,35,4.30
2009,03,08,13,36,4.30
2009,03,08,13,37,4.30
2009,03,08,13,38,4.40
2009,03,08,13,39,4.40
2009,03,08,13,40,4.50
2009,03,08,13,41,4.60
2009,03,08,13,42,4.60
2009,03,08,13,43,4.70
2009,03,08,13,44,4.60
2009,03,08,13,45,4.60
2009,03,08,13,46,4.50
2009,03,08,13,47,4.50
2009,03,08,13,48,4.40
2009,03,08,13,49,4.40
2009,03,08,13,50,4.30
2009,03,08,13,51,4.30
2009,03,08,13,52,4.30
2009,03,08,13,53,4.20
2009,03,08,13,54,4.30
2009,03,08,13,55,4.30
2009,03,08,13,56,4.30
2009,03,08,13,57,4.30
2009,03,08,13,58,4.30
2009,03,08,13,59,4.40
2009,03,08,14,00,4.40
2009,03,08,14,01,4.40
2009,03,08,14,02,4.40
2009,03,08,14,03,4.50
2009,03,08,14,04,4.50
2009,03,08,14,05,4.60
2009,03,08,14,06,4.60
2009,03,08,14,07,4.60
2009,03,08,14,08,4.70
2009,03,08,14,09,4.80
2009,03,08,14,10,4.90
2009,03,08,14,11,4.90
2009,03,08,14,12,5.00
2009,03,08,14,13,5.10
2009,03,08,14,14,5.10
2009,03,08,14,15,5.10
2009,03,08,14,16,5.10
2009,03,08,14,17,5.10
2009,03,08,14,18,5.10
2009,03,08,14,19,5.00
2009,03,08,14,20,4.90
2009,03,08,14,21,4.90
2009,03,08,14,22,4.90
2009,03,08,14,23,5.00
2009,03,08,14,24,5.00
2009,03,08,14,25,5.10
2009,03,08,14,26,5.10
2009,03,08,14,27,5.10
2009,03,08,14,28,5.10
2009,03,08,14,29,5.10
2009,03,08,14,30,5.00
2009,03,08,14,31,5.00
2009,03,08,14,32,4.90
2009,03,08,14,33,4.90
2009,03,08,14,34,4.90
2009,03,08,14,35,4.80
2009,03,08,14,36,4.90
2009,03,08,14,37,4.90
2009,03,08,14,38,4.90
2009,03,08,14,39,4.90
2009,03,08,14,40,4.90
2009,03,08,14,41,4.90
2009,03,08,14,42,4.90
2009,03,08,14,43,4.90
2009,03,08,14,44,4.90
2009,03,08,14,45,4.90
2009,03,08,14,46,4.90
2009,03,08,14,47,5.00
2009,03,08,14,48,5.00
2009,03,08,14,49,5.00
2009,03,08,14,50,5.00
2009,03,08,14,51,5.00
2009,03,08,14,52,5.00
2009,03,08,14,53,5.00
2009,03,08,14,54,5.10
2009,03,08,14,55,5.10
2009,03,08,14,56,5.10
2009,03,08,14,57,5.10
2009,03,08,14,58,5.00
2009,03,08,14,59,5.10
2009,03,08,15,00,5.10
2009,03,08,15,01,5.10
2009,03,08,15,02,5.10
2009,03,08,15,03,5.10
2009,03,08,15,04,5.00
2009,03,08,15,05,5.10
2009,03,08,15,06,5.00
2009,03,08,15,07,5.10
2009,03,08,15,08,5.10
2009,03,08,15,09,5.10
2009,03,08,15,10,5.10
2009,03,08,15,11,5.10
2009,03,08,15,12,5.10
2009,03,08,15,13,5.10
2009,03,08,15,14,5.10
2009,03,08,15,15,5.10
2009,03,08,15,16,5.10
2009,03,08,15,17,5.10
2009,03,08,15,18,5.10
2009,03,08,15,19,5.10
2009,03,08,15,20,5.20
2009,03,08,15,21,5.20
2009,03,08,15,22,5.30
2009,03,08,15,23,5.30
2009,03,08,15,24,5.30
2009,03,08,15,25,5.30
2009,03,08,15,26,5.30
2009,03,08,15,27,5.30
2009,03,08,15,28,5.30
2009,03,08,15,29,5.30
2009,03,08,15,30,5.40
2009,03,08,15,31,5.40
2009,03,08,15,32,5.40
2009,03,08,15,33,5.30
2009,03,08,15,34,5.30
2009,03,08,15,35,5.30
2009,03,08,15,36,5.30
2009,03,08,15,37,5.30
2009,03,08,15,38,5.30
2009,03,08,15,39,5.30
2009,03,08,15,40,5.30
2009,03,08,15,41,5.40
2009,03,08,15,42,5.40
2009,03,08,15,43,5.40
2009,03,08,15,44,5.40
2009,03,08,15,45,5.40
2009,03,08,15,46,5.40
2009,03,08,15,47,5.40
2009,03,08,15,48,5.40
2009,03,08,15,49,5.40
2009,03,08,15,50,5.40
2009,03,08,15,51,5.40
2009,03,08,15,52,5.50
2009,03,08,15,53,5.50
2009,03,08,15,54,5.50
2009,03,08,15,55,5.50
2009,03,08,15,56,5.40
2009,03,08,15,57,5.40
2009,03,08,15,58,5.40
2009,03,08,15,59,5.30
2009,03,08,16,00,5.30
2009,03,08,16,01,5.20
2009,03,08,16,02,5.20
2009,03,08,16,03,5.20
2009,03,08,16,04,5.20
2009,03,08,16,05,5.20
2009,03,08,16,06,5.30
2009,03,08,16,07,5.30
2009,03,08,16,08,5.30
2009,03,08,16,09,5.30
2009,03,08,16,10,5.40
2009,03,08,16,11,5.40
2009,03,08,16,12,5.40
2009,03,08,16,13,5.40
2009,03,08,16,14,5.40
2009,03,08,16,15,5.40
2009,03,08,16,16,5.40
2009,03,08,16,17,5.40
2009,03,08,16,18,5.50
2009,03,08,16,19,5.50
2009,03,08,16,20,5.50
2009,03,08,16,21,5.50
2009,03,08,16,22,5.50
2009,03,08,16,23,5.50
2009,03,08,16,24,5.50
2009,03,08,16,25,5.50
2009,03,08,16,26,5.50
2009,03,08,16,27,5.50
2009,03,08,16,28,5.50
2009,03,08,16,29,5.50
2009,03,08,16,30,5.50
2009,03,08,16,31,5.50
2009,03,08,16,32,5.50
2009,03,08,16,33,5.50
2009,03,08,16,34,5.50
2009,03,08,16,35,5.50
2009,03,08,16,36,5.40
2009,03,08,16,37,5.40
2009,03,08,16,38,5.30
2009,03,08,16,39,5.30
2009,03,08,16,40,5.30
2009,03,08,16,41,5.30
2009,03,08,16,42,5.40
2009,03,08,16,43,5.40
2009,03,08,16,44,5.40
2009,03,08,16,45,5.40
2009,03,08,16,46,5.40
2009,03,08,16,47,5.50
2009,03,08,16,48,5.50
2009,03,08,16,49,5.60
2009,03,08,16,50,5.60
2009,03,08,16,51,5.60
2009,03,08,16,52,5.60
2009,03,08,16,53,5.60
2009,03,08,16,54,5.60
2009,03,08,16,55,5.60
2009,03,08,16,56,5.50
2009,03,08,16,57,5.50
2009,03,08,16,58,5.50
2009,03,08,16,59,5.50
2009,03,08,17,00,5.50
2009,03,08,17,01,5.60
2009,03,08,17,02,5.60
2009,03,08,17,03,5.60
2009,03,08,17,04,5.60
2009,03,08,17,05,5.50
2009,03,08,17,06,5.50
2009,03,08,17,07,5.50
2009,03,08,17,08,5.40
2009,03,08,17,09,5.40
2009,03,08,17,10,5.40
2009,03,08,17,11,5.40
2009,03,08,17,12,5.40
2009,03,08,17,13,5.40
2009,03,08,17,14,5.40
2009,03,08,17,15,5.40
2009,03,08,17,16,5.40
2009,03,08,17,17,5.40
2009,03,08,17,18,5.40
2009,03,08,17,19,5.40
2009,03,08,17,20,5.40
2009,03,08,17,21,5.40
2009,03,08,17,22,5.40
2009,03,08,17,23,5.30
2009,03,08,17,24,5.40
2009,03,08,17,25,5.40
2009,03,08,17,26,5.40
2009,03,08,17,27,5.40
2009,03,08,17,28,5.40
2009,03,08,17,29,5.40
2009,03,08,17,30,5.40
2009,03,08,17,31,5.40
2009,03,08,17,32,5.40
2009,03,08,17,33,5.50
2009,03,08,17,34,5.50
2009,03,08,17,35,5.50
2009,03,08,17,36,5.50
2009,03,08,17,37,5.50
2009,03,08,17,38,5.50
2009,03,08,17,39,5.60
2009,03,08,17,40,5.60
2009,03,08,17,41,5.60
2009,03,08,17,42,5.60
2009,03,08,17,43,5.60
2009,03,08,17,44,5.60
2009,03,08,17,45,5.50
2009,03,08,17,46,5.50
2009,03,08,17,47,5.50
2009,03,08,17,48,5.50
2009,03,08,17,49,5.50
2009,03,08,17,50,5.50
2009,03,08,17,51,5.50
2009,03,08,17,52,5.50
2009,03,08,17,53,5.40
2009,03,08,17,54,5.40
2009,03,08,17,55,5.40
2009,03,08,17,56,5.40
2009,03,08,17,57,5.40
2009,03,08,17,58,5.40
2009,03,08,17,59,5.40
2009,03,08,18,00,5.40
2009,03,08,18,01,5.40
2009,03,08,18,02,5.40
2009,03,08,18,03,5.40
2009,03,08,18,04,5.40
2009,03,08,18,05,5.40
2009,03,08,18,06,5.40
2009,03,08,18,07,5.40
2009,03,08,18,08,5.40
2009,03,08,18,09,5.30
2009,03,08,18,10,5.40
2009,03,08,18,11,5.40
2009,03,08,18,12,5.40
2009,03,08,18,13,5.40
2009,03,08,18,14,5.30
2009,03,08,18,15,5.40
2009,03,08,18,16,5.30
2009,03,08,18,17,5.30
2009,03,08,18,18,5.30
2009,03,08,18,19,5.20
2009,03,08,18,20,5.20
2009,03,08,18,21,5.10
2009,03,08,18,22,5.10
2009,03,08,18,23,5.10
2009,03,08,18,24,5.00
2009,03,08,18,25,5.00
2009,03,08,18,26,4.90
2009,03,08,18,27,4.90
2009,03,08,18,28,4.90
2009,03,08,18,29,4.90
2009,03,08,18,30,4.80
2009,03,08,18,31,4.80
2009,03,08,18,32,4.80
2009,03,08,18,33,4.80
2009,03,08,18,34,4.80
2009,03,08,18,35,4.80
2009,03,08,18,36,4.70
2009,03,08,18,37,4.70
2009,03,08,18,38,4.70
2009,03,08,18,39,4.70
2009,03,08,18,40,4.70
2009,03,08,18,41,4.70
2009,03,08,18,42,4.70
2009,03,08,18,43,4.70
2009,03,08,18,44,4.70
2009,03,08,18,45,4.70
2009,03,08,18,46,4.70
2009,03,08,18,47,4.60
2009,03,08,18,48,4.60
2009,03,08,18,49,4.60
2009,03,08,18,50,4.60
2009,03,08,18,51,4.60
2009,03,08,18,52,4.60
2009,03,08,18,53,4.60
2009,03,08,18,54,4.60
2009,03,08,18,55,4.60
2009,03,08,18,56,4.60
2009,03,08,18,57,4.60
2009,03,08,18,58,4.60
2009,03,08,18,59,4.60
